Simultaneous Nadir Overpasses (SNOs) Predictions

Prediction of SNOs between AQUA and METOP-B Satellite Orbit:

Table of predicted SNOs for the next 14.0 days since TLE Epoch: 9/21/2024
Index Date (AQUA) Time (AQUA) Lat,Lon (AQUA) SZA (AQUA ) Date (METOP-B) Time (METOP-B) Lat,Lon (METOP-B) SZA (METOP-B ) Distance(km) Time Diff (sec)
1 09/21/2024 12:31:02 -76.22, 170.22 104.25 09/21/2024 12:29:53 -76.24, 170.19 104.23 2.53 69
2 09/21/2024 13:20:25 76.27, -22.30 75.82 09/21/2024 13:20:32 76.29, -22.31 75.84 2.03 7
3 09/21/2024 14:09:57 -76.85, 143.35 103.58 09/21/2024 14:11:01 -76.85, 147.09 103.59 94.43 64
4 09/24/2024 03:01:22 -76.16, -47.12 103.30 09/24/2024 03:00:10 -76.07, -47.99 103.39 25.34 72
5 09/24/2024 03:50:47 76.31, 120.03 76.87 09/24/2024 03:50:45 76.30, 120.13 76.86 3.25 2
6 09/24/2024 04:40:11 -76.51, -72.97 102.92 09/24/2024 04:41:21 -76.54, -71.65 102.88 34.52 70
7 09/26/2024 17:31:36 -75.86, 96.29 102.59 09/26/2024 17:30:29 -75.83, 93.65 102.61 72.09 67
8 09/26/2024 18:21:07 76.31, -97.49 77.88 09/26/2024 18:20:59 76.29, -97.48 77.86 2.30 8
9 09/26/2024 19:10:28 -76.36, 70.01 102.06 09/26/2024 19:11:39 -76.36, 70.09 102.06 2.35 71
10 09/29/2024 08:51:25 76.31, 44.98 78.90 09/29/2024 08:51:12 76.31, 45.02 78.90 1.03 13
11 09/29/2024 09:40:46 -76.36,-147.51 101.05 09/29/2024 09:41:53 -76.34,-147.56 101.07 2.49 67
12 10/01/2024 23:21:41 76.31,-172.55 79.91 10/01/2024 23:21:25 76.32,-172.53 79.92 0.73 16
13 10/02/2024 00:11:02 -76.36, -5.03 100.04 10/02/2024 00:12:06 -76.35, -5.10 100.04 2.16 64
14 10/04/2024 13:51:54 76.32, -30.08 80.93 10/04/2024 13:51:37 76.31, -30.13 80.92 1.73 17



Historial Predications of SNOs between AQUA and METOP-B
